| time (UTC) | temp F | wind direction | speed knots | gust knots | rain 1hr in | rain 24hr in | rain mn in | humidity % | barometer mb |
| 20260506092321 | 55 | 199 | 4.3 | 7.0 | 0.00 | 0.00 | 0.00 | 91 | 1010.2 |
| 20260506091818 | 55 | 180 | 3.5 | 7.0 | 0.00 | 0.00 | 0.00 | 91 | 1010.3 |
| 20260506091315 | 55 | 175 | 6.1 | 7.8 | 0.00 | 0.00 | 0.00 | 91 | 1010.2 |
| 20260506090813 | 55 | 179 | 2.6 | 5.2 | 0.00 | 0.00 | 0.00 | 91 | 1010.3 |
| 20260506090310 | 55 | 243 | 7.0 | 11.3 | 0.00 | 0.00 | 0.00 | 91 | 1010.4 |
| 20260506085807 | 55 | 262 | 3.5 | 5.2 | 0.00 | 0.00 | 0.00 | 91 | 1010.6 |
| 20260506085305 | 55 | 155 | 7.0 | 8.7 | 0.00 | 0.00 | 0.00 | 91 | 1010.3 |
| 20260506084759 | 55 | 358 | 1.7 | 5.2 | 0.00 | 0.00 | 0.00 | 91 | 1010.4 |
| 20260506084256 | 55 | 221 | 5.2 | 9.6 | 0.00 | 0.00 | 0.00 | 91 | 1010.5 |
| 20260506083753 | 55 | 183 | 6.1 | 11.3 | 0.00 | 0.00 | 0.00 | 91 | 1010.6 |
| 20260506083251 | 55 | 224 | 1.7 | 2.6 | 0.00 | 0.00 | 0.00 | 90 | 1010.6 |
| 20260506082748 | 55 | 178 | 2.6 | 7.0 | 0.00 | 0.00 | 0.00 | 90 | 1010.3 |
| 20260506082243 | 55 | 178 | 2.6 | 7.0 | 0.00 | 0.00 | 0.00 | 90 | 1010.3 |
| 20260506081741 | 55 | 172 | 5.2 | 6.1 | 0.00 | 0.00 | 0.00 | 90 | 1010.6 |
| 20260506081238 | 55 | 187 | 3.5 | 5.2 | 0.00 | 0.00 | 0.00 | 90 | 1010.4 |
| 20260506080737 | 55 | 212 | 1.7 | 1.7 | 0.00 | 0.00 | 0.00 | 90 | 1010.3 |
| 20260506080232 | 55 | 225 | 3.5 | 5.2 | 0.00 | 0.00 | 0.00 | 90 | 1010.5 |
| 20260506073217 | 56 | 207 | 5.2 | 7.0 | 0.00 | 0.00 | 0.00 | 89 | 1010.8 |
| 20260506072713 | 56 | 246 | 3.5 | 5.2 | 0.00 | 0.00 | 0.00 | 89 | 1011.0 |
| 20260506072211 | 56 | 218 | 4.3 | 5.2 | 0.00 | 0.00 | 0.00 | 89 | 1010.9 |
| 20260506071708 | 56 | 145 | 5.2 | 7.8 | 0.00 | 0.00 | 0.00 | 89 | 1010.8 |
| 20260506071206 | 56 | 299 | 1.7 | 2.6 | 0.00 | 0.00 | 0.00 | 88 | 1011.0 |
| 20260506070703 | 56 | 202 | 3.5 | 7.0 | 0.00 | 0.00 | 0.00 | 88 | 1010.9 |
| 20260506070200 | 56 | 344 | 3.5 | 5.2 | 0.00 | 0.00 | 0.00 | 88 | 1011.0 |
| 20260506062137 | 56 | 174 | 5.2 | 7.8 | 0.00 | 0.00 | 0.00 | 87 | 1010.7 |
| 20260506061633 | 56 | 134 | 3.5 | 5.2 | 0.00 | 0.00 | 0.00 | 87 | 1010.6 |
| 20260506061131 | 56 | 234 | 4.3 | 7.8 | 0.00 | 0.00 | 0.00 | 87 | 1010.9 |
| 20260506060629 | 56 | 201 | 3.5 | 7.0 | 0.00 | 0.00 | 0.00 | 87 | 1010.8 |
| 20260506060125 | 56 | 333 | 5.2 | 8.7 | 0.00 | 0.00 | 0.00 | 87 | 1010.8 |
| 20260506051057 | 57 | 170 | 5.2 | 6.1 | 0.00 | 0.00 | 0.00 | 85 | 1011.2 |
| 20260506050555 | 57 | 230 | 7.0 | 8.7 | 0.00 | 0.00 | 0.00 | 85 | 1010.8 |
| 20260506045046 | 57 | 171 | 4.3 | 7.0 | 0.00 | 0.00 | 0.00 | 85 | 1011.0 |
| 20260506044544 | 57 | 268 | 4.3 | 6.1 | 0.00 | 0.00 | 0.00 | 85 | 1011.1 |
| 20260506044040 | 57 | 195 | 4.3 | 5.2 | 0.00 | 0.00 | 0.00 | 84 | 1011.1 |
| 20260506043537 | 57 | 200 | 6.1 | 7.8 | 0.00 | 0.00 | 0.00 | 85 | 1011.2 |
| 20260506043036 | 57 | 230 | 6.1 | 9.6 | 0.00 | 0.00 | 0.00 | 84 | 1011.2 |
| 20260506042534 | 57 | 232 | 5.2 | 9.6 | 0.00 | 0.00 | 0.00 | 84 | 1011.1 |
| 20260506042032 | 57 | 226 | 7.0 | 8.7 | 0.00 | 0.00 | 0.00 | 84 | 1011.1 |
| 20260506041531 | 57 | 226 | 4.3 | 7.8 | 0.00 | 0.00 | 0.00 | 84 | 1011.2 |
| 20260506041027 | 57 | 173 | 8.7 | 12.2 | 0.00 | 0.00 | 0.00 | 84 | 1011.2 |
| 20260506040525 | 57 | 240 | 5.2 | 9.6 | 0.00 | 0.00 | 0.00 | 83 | 1011.2 |
| 20260506040020 | 57 | 180 | 6.1 | 9.6 | 0.00 | 0.00 | 0.00 | 83 | 1011.1 |
| 20260506035518 | 57 | 180 | 6.1 | 9.6 | 0.00 | 0.00 | 0.00 | 83 | 1011.1 |
| 20260506035014 | 57 | 172 | 3.5 | 5.2 | 0.00 | 0.00 | 0.00 | 83 | 1011.0 |
| 20260506034512 | 58 | 212 | 5.2 | 7.0 | 0.00 | 0.00 | 0.00 | 82 | 1011.0 |
| 20260506034009 | 58 | 194 | 7.8 | 11.3 | 0.00 | 0.00 | 0.00 | 82 | 1010.9 |
| 20260506033506 | 58 | 202 | 2.6 | 2.6 | 0.00 | 0.00 | 0.00 | 82 | 1011.1 |
| 20260506033003 | 58 | 165 | 3.5 | 7.8 | 0.00 | 0.00 | 0.00 | 82 | 1011.2 |
| 20260506032500 | 58 | 112 | 3.5 | 3.5 | 0.00 | 0.00 | 0.00 | 82 | 1011.0 |
| 20260506031956 | 58 | 222 | 3.5 | 7.0 | 0.00 | 0.00 | 0.00 | 82 | 1011.0 |
| 20260506031454 | 58 | 202 | 6.1 | 12.2 | 0.00 | 0.00 | 0.00 | 82 | 1010.9 |
| 20260506030951 | 58 | 200 | 4.3 | 6.1 | 0.00 | 0.00 | 0.00 | 82 | 1011.1 |
| 20260506030449 | 58 | 161 | 7.8 | 9.6 | 0.00 | 0.00 | 0.00 | 82 | 1011.2 |
| 20260506025946 | 58 | 163 | 3.5 | 6.1 | 0.00 | 0.00 | 0.00 | 82 | 1011.1 |
| 20260506025443 | 58 | 220 | 5.2 | 8.7 | 0.00 | 0.00 | 0.00 | 82 | 1011.3 |
| 20260506024939 | 58 | 237 | 5.2 | 8.7 | 0.00 | 0.00 | 0.00 | 82 | 1011.1 |
| 20260506024436 | 58 | 180 | 5.2 | 9.6 | 0.00 | 0.00 | 0.00 | 82 | 1011.2 |
| 20260506023932 | 59 | 209 | 3.5 | 5.2 | 0.00 | 0.00 | 0.00 | 82 | 1011.2 |
| 20260506023429 | 58 | 245 | 1.7 | 1.7 | 0.00 | 0.00 | 0.00 | 82 | 1011.1 |
| 20260506022926 | 58 | 206 | 4.3 | 6.1 | 0.00 | 0.00 | 0.00 | 82 | 1011.3 |
| 20260506022424 | 58 | 220 | 2.6 | 5.2 | 0.00 | 0.00 | 0.00 | 82 | 1011.1 |
| 20260506021921 | 58 | 202 | 6.1 | 7.8 | 0.00 | 0.00 | 0.00 | 82 | 1011.1 |
| 20260506021418 | 58 | 237 | 5.2 | 7.0 | 0.00 | 0.00 | 0.00 | 82 | 1011.2 |
| 20260506020915 | 58 | 300 | 3.5 | 6.1 | 0.00 | 0.00 | 0.00 | 82 | 1011.2 |
| 20260506020413 | 58 | 76 | 5.2 | 7.0 | 0.00 | 0.00 | 0.00 | 81 | 1011.1 |
| 20260506015910 | 59 | 270 | 4.3 | 6.1 | 0.00 | 0.00 | 0.00 | 81 | 1011.1 |
| 20260506015408 | 59 | 288 | 7.0 | 9.6 | 0.00 | 0.00 | 0.00 | 80 | 1010.9 |
| 20260506014904 | 59 | 264 | 4.3 | 7.0 | 0.00 | 0.00 | 0.00 | 80 | 1011.0 |
| 20260506014401 | 59 | 256 | 6.1 | 7.8 | 0.00 | 0.00 | 0.00 | 80 | 1011.0 |
| 20260506013858 | 59 | 201 | 6.1 | 8.7 | 0.00 | 0.00 | 0.00 | 79 | 1010.9 |
| 20260506013356 | 59 | 173 | 6.1 | 11.3 | 0.00 | 0.00 | 0.00 | 79 | 1010.8 |
| 20260506012851 | 59 | 219 | 7.8 | 11.3 | 0.00 | 0.00 | 0.00 | 79 | 1010.9 |
| 20260506012348 | 59 | 198 | 6.1 | 8.7 | 0.00 | 0.00 | 0.00 | 79 | 1010.8 |
| 20260506011845 | 59 | 161 | 5.2 | 8.7 | 0.00 | 0.00 | 0.00 | 78 | 1010.8 |
| 20260506011342 | 59 | 231 | 7.8 | 11.3 | 0.00 | 0.00 | 0.00 | 78 | 1010.6 |
| 20260506010840 | 60 | 79 | 1.7 | 2.6 | 0.00 | 0.00 | 0.00 | 77 | 1010.8 |
| 20260506010338 | 60 | 216 | 7.0 | 11.3 | 0.00 | 0.00 | 0.00 | 77 | 1010.7 |
| 20260506005834 | 60 | 146 | 6.1 | 8.7 | 0.00 | 0.00 | 0.00 | 77 | 1010.6 |
| 20260506005331 | 59 | 246 | 5.2 | 7.0 | 0.00 | 0.00 | 0.00 | 77 | 1010.7 |
| 20260506004827 | 60 | 247 | 3.5 | 7.0 | 0.00 | 0.00 | 0.00 | 77 | 1010.4 |
| 20260506004325 | 60 | 200 | 4.3 | 5.2 | 0.00 | 0.00 | 0.00 | 76 | 1010.4 |
| 20260506003821 | 60 | 184 | 4.3 | 7.0 | 0.00 | 0.00 | 0.00 | 76 | 1010.4 |
| 20260506003317 | 60 | 188 | 3.5 | 7.0 | 0.00 | 0.00 | 0.00 | 75 | 1010.4 |
| 20260506002814 | 61 | 153 | 3.5 | 5.2 | 0.00 | 0.00 | 0.00 | 75 | 1010.3 |
| 20260506002310 | 60 | 201 | 3.5 | 5.2 | 0.00 | 0.00 | 0.00 | 75 | 1010.3 |
| 20260506001806 | 60 | 152 | 3.5 | 6.1 | 0.00 | 0.00 | 0.00 | 76 | 1010.2 |
| 20260506001303 | 60 | 127 | 4.3 | 7.8 | 0.00 | 0.00 | 0.00 | 76 | 1010.1 |
| 20260506000800 | 60 | 174 | 6.1 | 8.7 | 0.00 | 0.00 | 0.00 | 76 | 1010.0 |
| 20260506000258 | 60 | 276 | 3.5 | 5.2 | 0.00 | 0.00 | 0.00 | 76 | 1009.9 |
| 20260505235754 | 60 | 237 | 1.7 | 2.6 | 0.00 | 0.00 | 0.00 | 75 | 1009.8 |
| 20260505235252 | 60 | 193 | 3.5 | 5.2 | 0.00 | 0.00 | 0.00 | 75 | 1009.7 |
| 20260505234749 | 60 | 187 | 6.1 | 8.7 | 0.00 | 0.00 | 0.00 | 75 | 1009.5 |
| 20260505234246 | 60 | 178 | 3.5 | 6.1 | 0.00 | 0.00 | 0.00 | 75 | 1009.5 |
| 20260505233743 | 61 | 250 | 7.8 | 8.7 | 0.00 | 0.00 | 0.00 | 75 | 1009.4 |
| 20260505233241 | 60 | 191 | 7.8 | 9.6 | 0.00 | 0.00 | 0.00 | 75 | 1009.2 |
| 20260505232738 | 60 | 84 | 4.3 | 9.6 | 0.00 | 0.00 | 0.00 | 75 | 1009.3 |
| 20260505232235 | 60 | 209 | 4.3 | 9.6 | 0.00 | 0.00 | 0.00 | 75 | 1009.2 |
| 20260505231732 | 60 | 116 | 7.0 | 9.6 | 0.00 | 0.00 | 0.00 | 75 | 1009.1 |
| 20260505231231 | 60 | 225 | 7.0 | 11.3 | 0.00 | 0.00 | 0.00 | 75 | 1009.2 |
| 20260505230729 | 60 | 180 | 4.3 | 7.0 | 0.00 | 0.00 | 0.00 | 75 | 1009.1 |
| 20260505230225 | 60 | 105 | 5.2 | 7.8 | 0.00 | 0.00 | 0.00 | 75 | 1009.2 |
| 20260505225722 | 61 | 228 | 7.0 | 13.0 | 0.00 | 0.00 | 0.00 | 75 | 1009.1 |
| 20260505225219 | 61 | 176 | 4.3 | 6.1 | 0.00 | 0.00 | 0.00 | 74 | 1009.0 |
| 20260505224714 | 61 | 183 | 7.0 | 9.6 | 0.00 | 0.00 | 0.00 | 75 | 1009.2 |
| 20260505224212 | 61 | 182 | 7.8 | 14.8 | 0.00 | 0.00 | 0.00 | 75 | 1008.8 |
| 20260505223709 | 61 | 146 | 6.1 | 8.7 | 0.00 | 0.00 | 0.00 | 75 | 1009.0 |
| 20260505223205 | 61 | 168 | 6.1 | 7.8 | 0.00 | 0.00 | 0.00 | 75 | 1008.8 |
| 20260505222701 | 61 | 237 | 4.3 | 5.2 | 0.00 | 0.00 | 0.00 | 75 | 1009.0 |
| 20260505222157 | 61 | 174 | 7.0 | 12.2 | 0.00 | 0.00 | 0.00 | 74 | 1009.0 |
| 20260505221655 | 62 | 210 | 5.2 | 7.8 | 0.00 | 0.00 | 0.00 | 74 | 1008.9 |
| 20260505221151 | 61 | 195 | 6.1 | 9.6 | 0.00 | 0.00 | 0.00 | 73 | 1008.8 |
| 20260505220649 | 61 | 107 | 3.5 | 5.2 | 0.00 | 0.00 | 0.00 | 73 | 1008.9 |
| 20260505220146 | 62 | 167 | 7.0 | 12.2 | 0.00 | 0.00 | 0.00 | 72 | 1008.9 |
| 20260505215644 | 62 | 145 | 5.2 | 7.0 | 0.00 | 0.00 | 0.00 | 71 | 1008.8 |
| 20260505215142 | 62 | 197 | 5.2 | 8.7 | 0.00 | 0.00 | 0.00 | 72 | 1008.6 |
| 20260505214639 | 62 | 215 | 5.2 | 7.8 | 0.00 | 0.00 | 0.00 | 73 | 1008.8 |
| 20260505214136 | 62 | 202 | 9.6 | 13.9 | 0.00 | 0.00 | 0.00 | 72 | 1008.7 |
| 20260505213634 | 62 | 214 | 5.2 | 8.7 | 0.00 | 0.00 | 0.00 | 72 | 1008.6 |
| 20260505213130 | 62 | 186 | 3.5 | 5.2 | 0.00 | 0.00 | 0.00 | 72 | 1008.6 |
| 20260505212626 | 62 | 146 | 4.3 | 5.2 | 0.00 | 0.00 | 0.00 | 72 | 1008.5 |
| 20260505212124 | 63 | 152 | 9.6 | 15.6 | 0.00 | 0.00 | 0.00 | 71 | 1008.4 |
| 20260505211621 | 63 | 132 | 6.1 | 9.6 | 0.00 | 0.00 | 0.00 | 71 | 1008.4 |
| 20260505211118 | 62 | 232 | 2.6 | 5.2 | 0.00 | 0.00 | 0.00 | 72 | 1008.6 |
| 20260505210614 | 62 | 185 | 8.7 | 12.2 | 0.00 | 0.00 | 0.00 | 73 | 1008.5 |
| 20260505210111 | 62 | 185 | 6.1 | 8.7 | 0.00 | 0.00 | 0.00 | 74 | 1008.4 |
| 20260505205609 | 62 | 135 | 8.7 | 12.2 | 0.00 | 0.00 | 0.00 | 72 | 1008.3 |
| 20260505205107 | 62 | 233 | 6.1 | 7.8 | 0.00 | 0.00 | 0.00 | 73 | 1008.4 |
| 20260505204604 | 62 | 166 | 9.6 | 14.8 | 0.00 | 0.00 | 0.00 | 73 | 1008.4 |
| 20260505204101 | 62 | 133 | 6.1 | 11.3 | 0.00 | 0.00 | 0.00 | 74 | 1008.3 |
| 20260505203557 | 62 | 134 | 4.3 | 6.1 | 0.00 | 0.00 | 0.00 | 73 | 1008.4 |
| 20260505203055 | 62 | 215 | 7.0 | 9.6 | 0.00 | 0.00 | 0.00 | 73 | 1008.5 |
| 20260505202550 | 62 | 254 | 6.1 | 8.7 | 0.00 | 0.00 | 0.00 | 74 | 1008.3 |
| 20260505202047 | 62 | 177 | 7.8 | 9.6 | 0.00 | 0.00 | 0.00 | 74 | 1008.8 |
| 20260505201543 | 62 | 149 | 2.6 | 3.5 | 0.00 | 0.00 | 0.00 | 73 | 1008.5 |
| 20260505201041 | 62 | 171 | 5.2 | 9.6 | 0.00 | 0.00 | 0.00 | 73 | 1008.5 |
| 20260505200539 | 63 | 216 | 10.4 | 15.6 | 0.00 | 0.00 | 0.00 | 73 | 1008.6 |
| 20260505200036 | 63 | 263 | 4.3 | 6.1 | 0.00 | 0.00 | 0.00 | 73 | 1008.7 |
| 20260505195531 | 62 | 127 | 5.2 | 7.8 | 0.00 | 0.00 | 0.00 | 74 | 1008.7 |
| 20260505195029 | 62 | 229 | 7.0 | 12.2 | 0.00 | 0.00 | 0.00 | 73 | 1008.9 |
| 20260505194526 | 63 | 262 | 3.5 | 5.2 | 0.00 | 0.00 | 0.00 | 73 | 1009.0 |
| 20260505194021 | 63 | 252 | 4.3 | 8.7 | 0.00 | 0.00 | 0.00 | 72 | 1008.9 |
| 20260505193519 | 64 | 180 | 2.6 | 5.2 | 0.00 | 0.00 | 0.00 | 72 | 1009.0 |
| 20260505193016 | 64 | 210 | 5.2 | 7.8 | 0.00 | 0.00 | 0.00 | 72 | 1009.0 |
| 20260505192515 | 63 | 130 | 3.5 | 3.5 | 0.00 | 0.00 | 0.00 | 73 | 1009.3 |
| 20260505192012 | 63 | 52 | 2.6 | 3.5 | 0.00 | 0.00 | 0.00 | 74 | 1009.4 |
| 20260505191510 | 64 | 162 | 4.3 | 6.1 | 0.00 | 0.00 | 0.00 | 71 | 1009.4 |
| 20260505191008 | 64 | 131 | 6.1 | 7.8 | 0.00 | 0.00 | 0.00 | 72 | 1009.5 |
| 20260505190502 | 63 | 219 | 0.9 | 1.7 | 0.00 | 0.00 | 0.00 | 74 | 1009.6 |
| 20260505185958 | 63 | 239 | 6.1 | 7.8 | 0.00 | 0.00 | 0.00 | 73 | 1009.6 |
| 20260505185456 | 63 | 175 | 7.0 | 7.8 | 0.00 | 0.00 | 0.00 | 73 | 1009.9 |
| 20260505184951 | 63 | 167 | 4.3 | 6.1 | 0.00 | 0.00 | 0.00 | 74 | 1009.9 |
| 20260505184448 | 62 | 181 | 7.0 | 8.7 | 0.00 | 0.00 | 0.00 | 74 | 1010.0 |
| 20260505183945 | 62 | 188 | 5.2 | 7.0 | 0.00 | 0.00 | 0.00 | 74 | 1010.1 |
| 20260505183442 | 63 | 225 | 7.0 | 8.7 | 0.00 | 0.00 | 0.00 | 72 | 1010.2 |
| 20260505182938 | 63 | 226 | 0.9 | 2.6 | 0.00 | 0.00 | 0.00 | 74 | 1010.4 |
| 20260505182436 | 63 | 70 | 3.5 | 5.2 | 0.00 | 0.00 | 0.00 | 73 | 1010.4 |
| 20260505181932 | 63 | 271 | 3.5 | 7.0 | 0.00 | 0.00 | 0.00 | 73 | 1010.7 |
| 20260505181430 | 63 | 209 | 3.5 | 6.1 | 0.00 | 0.00 | 0.00 | 73 | 1010.7 |
| 20260505180926 | 64 | 201 | 4.3 | 6.1 | 0.00 | 0.00 | 0.00 | 73 | 1010.6 |
| 20260505180422 | 63 | 210 | 1.7 | 1.7 | 0.00 | 0.00 | 0.00 | 74 | 1010.7 |
| 20260505175919 | 64 | 190 | 3.5 | 3.5 | 0.00 | 0.00 | 0.00 | 72 | 1010.7 |
| 20260505175415 | 64 | 256 | 1.7 | 3.5 | 0.00 | 0.00 | 0.00 | 73 | 1010.8 |
| 20260505174912 | 63 | 215 | 1.7 | 2.6 | 0.00 | 0.00 | 0.00 | 74 | 1010.9 |
| 20260505174410 | 63 | 268 | 5.2 | 7.0 | 0.00 | 0.00 | 0.00 | 74 | 1011.1 |
| 20260505173906 | 63 | 231 | 3.5 | 5.2 | 0.00 | 0.00 | 0.00 | 74 | 1011.0 |
| 20260505173402 | 63 | 289 | 2.6 | 5.2 | 0.00 | 0.00 | 0.00 | 74 | 1010.9 |
| 20260505172859 | 63 | 245 | 5.2 | 7.0 | 0.00 | 0.00 | 0.00 | 73 | 1010.8 |
| 20260505172357 | 64 | 186 | 3.5 | 6.1 | 0.00 | 0.00 | 0.00 | 73 | 1010.9 |
| 20260505171856 | 62 | 177 | 4.3 | 5.2 | 0.00 | 0.00 | 0.00 | 76 | 1010.8 |
| 20260505171353 | 62 | 174 | 1.7 | 2.6 | 0.00 | 0.00 | 0.00 | 77 | 1011.0 |
| 20260505170850 | 62 | 180 | 3.5 | 5.2 | 0.00 | 0.00 | 0.00 | 77 | 1010.9 |
| 20260505170347 | 62 | 254 | 5.2 | 6.1 | 0.00 | 0.00 | 0.00 | 75 | 1011.0 |
| 20260505165842 | 63 | 134 | 3.5 | 5.2 | 0.00 | 0.00 | 0.00 | 73 | 1011.1 |
| 20260505165338 | 62 | 253 | 0.9 | 1.7 | 0.00 | 0.00 | 0.00 | 77 | 1011.2 |
| 20260505164834 | 62 | 96 | 0.0 | 0.9 | 0.00 | 0.00 | 0.00 | 77 | 1011.2 |
| 20260505164331 | 62 | 231 | 4.3 | 6.1 | 0.00 | 0.00 | 0.00 | 76 | 1011.4 |
| 20260505163829 | 63 | 192 | 6.1 | 7.8 | 0.00 | 0.00 | 0.00 | 74 | 1011.3 |
| 20260505163328 | 64 | 47 | 3.5 | 5.2 | 0.00 | 0.00 | 0.00 | 73 | 1011.1 |
| 20260505162826 | 63 | 151 | 0.9 | 1.7 | 0.00 | 0.00 | 0.00 | 75 | 1011.2 |
| 20260505162321 | 64 | 197 | 3.5 | 5.2 | 0.00 | 0.00 | 0.00 | 72 | 1011.2 |
| 20260505161819 | 65 | 113 | 2.6 | 5.2 | 0.00 | 0.00 | 0.00 | 71 | 1011.4 |
| 20260505161316 | 65 | 249 | 0.9 | 2.6 | 0.00 | 0.00 | 0.00 | 72 | 1011.3 |
| 20260505160813 | 65 | 232 | 1.7 | 2.6 | 0.00 | 0.00 | 0.00 | 73 | 1011.5 |
| 20260505160311 | 64 | 210 | 1.7 | 2.6 | 0.00 | 0.00 | 0.00 | 74 | 1011.3 |
| 20260505153250 | 64 | 213 | 1.7 | 2.6 | 0.00 | 0.00 | 0.00 | 73 | 1011.4 |
| 20260505152747 | 63 | 56 | 1.7 | 1.7 | 0.00 | 0.00 | 0.00 | 75 | 1011.5 |
| 20260505152243 | 62 | 229 | 3.5 | 5.2 | 0.00 | 0.00 | 0.00 | 76 | 1011.7 |
| 20260505151737 | 62 | 146 | 3.5 | 5.2 | 0.00 | 0.00 | 0.00 | 75 | 1011.7 |
| 20260505151235 | 62 | 146 | 1.7 | 3.5 | 0.00 | 0.00 | 0.00 | 76 | 1011.8 |
| 20260505150732 | 62 | 167 | 1.7 | 3.5 | 0.00 | 0.00 | 0.00 | 76 | 1012.1 |
| 20260505150230 | 62 | 267 | 5.2 | 7.0 | 0.00 | 0.00 | 0.00 | 75 | 1012.0 |
| 20260505140200 | 61 | 146 | 0.0 | 0.9 | 0.00 | 0.00 | 0.00 | 79 | 1011.6 |
| 20260505130123 | 59 | 179 | 3.5 | 6.1 | 0.00 | 0.00 | 0.00 | 84 | 1011.5 |
| 20260505124613 | 59 | 72 | 1.7 | 3.5 | 0.00 | 0.00 | 0.00 | 83 | 1011.3 |
| 20260505124109 | 59 | 143 | 0.0 | 0.9 | 0.00 | 0.00 | 0.00 | 85 | 1011.5 |
| 20260505123605 | 59 | 194 | 3.5 | 3.5 | 0.00 | 0.00 | 0.00 | 84 | 1011.4 |
| 20260505123102 | 58 | 152 | 0.9 | 0.9 | 0.00 | 0.00 | 0.00 | 85 | 1011.5 |
| 20260505122559 | 58 | 156 | 4.3 | 6.1 | 0.00 | 0.00 | 0.00 | 86 | 1011.2 |
| 20260505122056 | 58 | 138 | 1.7 | 2.6 | 0.00 | 0.00 | 0.00 | 84 | 1011.4 |
| 20260505121552 | 58 | 157 | 1.7 | 2.6 | 0.00 | 0.00 | 0.00 | 85 | 1011.5 |
| 20260505121049 | 57 | 189 | 0.9 | 1.7 | 0.00 | 0.00 | 0.00 | 85 | 1011.2 |
| 20260505120546 | 58 | 200 | 1.7 | 1.7 | 0.00 | 0.00 | 0.00 | 85 | 1011.7 |
| 20260505120041 | 58 | 193 | 3.5 | 3.5 | 0.00 | 0.00 | 0.00 | 85 | 1011.6 |
| 20260505115536 | 58 | 187 | 0.9 | 0.9 | 0.00 | 0.00 | 0.00 | 87 | 1011.7 |
| 20260505115034 | 57 | 205 | 0.0 | 1.7 | 0.00 | 0.00 | 0.00 | 89 | 1011.4 |
| 20260505114530 | 56 | 224 | 0.9 | 0.9 | 0.00 | 0.00 | 0.00 | 89 | 1011.4 |
| 20260505114027 | 56 | 74 | 0.0 | 0.9 | 0.00 | 0.00 | 0.00 | 89 | 1011.4 |
| 20260505113523 | 56 | 181 | 0.0 | 0.0 | 0.00 | 0.00 | 0.00 | 89 | 1011.4 |
| 20260505113020 | 56 | 189 | 0.9 | 0.9 | 0.00 | 0.00 | 0.00 | 89 | 1011.6 |
| 20260505112517 | 57 | 165 | 0.9 | 0.9 | 0.00 | 0.00 | 0.00 | 89 | 1011.4 |
| 20260505112015 | 57 | 145 | 0.0 | 0.9 | 0.00 | 0.00 | 0.00 | 89 | 1011.4 |
| 20260505111514 | 56 | 133 | 0.9 | 0.9 | 0.00 | 0.00 | 0.00 | 90 | 1011.4 |
| 20260505111010 | 56 | 186 | 0.9 | 0.9 | 0.00 | 0.00 | 0.00 | 91 | 1011.5 |
| 20260505110507 | 55 | 230 | 0.9 | 0.9 | 0.00 | 0.00 | 0.00 | 91 | 1011.8 |
| 20260505101939 | 53 | 178 | 1.7 | 2.6 | 0.00 | 0.00 | 0.00 | 94 | 1010.7 |
| 20260505101438 | 53 | 173 | 0.0 | 0.0 | 0.00 | 0.00 | 0.00 | 94 | 1010.7 |
| 20260505100934 | 53 | 161 | 1.7 | 1.7 | 0.00 | 0.00 | 0.00 | 94 | 1010.8 |
| 20260505100431 | 53 | 170 | 0.9 | 1.7 | 0.00 | 0.00 | 0.00 | 94 | 1010.4 |
| 20260505095926 | 52 | 179 | 0.9 | 0.9 | 0.00 | 0.00 | 0.00 | 94 | 1010.4 |
| 20260505095424 | 52 | 181 | 0.0 | 0.9 | 0.00 | 0.00 | 0.00 | 93 | 1010.5 |
| 20260505094920 | 52 | 162 | 0.0 | 0.0 | 0.00 | 0.00 | 0.00 | 93 | 1010.6 |
| 20260505094417 | 52 | 161 | 0.0 | 0.0 | 0.00 | 0.00 | 0.00 | 93 | 1010.4 |
| 20260505093913 | 52 | 185 | 0.0 | 0.0 | 0.00 | 0.00 | 0.00 | 93 | 1010.3 |
| 20260505093410 | 52 | 169 | 0.0 | 0.9 | 0.00 | 0.00 | 0.00 | 93 | 1010.5 |
| 20260505092907 | 52 | 170 | 0.0 | 0.0 | 0.00 | 0.00 | 0.00 | 93 | 1010.5 |